Regional Weather Roundup
Issued by NWS

Home | Current Version | Previous Version | Graphics & Text | Print | Product List | Glossary On
Versions: 1 2 3 4 5 6 7 8 9 10 11 12 13 14 15 16 17 18 19 20 21 22 23 24 25 26 27 28 29 30 31 32 33 34 35 36 37 38 39 40 41 42 43 44 45 46 47 48 49 50
000
ASUS43 KMKX 250310
RWRWI

WISCONSIN REGIONAL WEATHER ROUNDUP
NATIONAL WEATHER SERVICE MILWAUKEE/SULLIVAN WI
1000 PM CDT WED MAY 24 2017

NOTE: "FAIR" INDICATES FEW OR NO CLOUDS BELOW 12,000 FEET WITH NO
SIGNIFICANT WEATHER AND/OR OBSTRUCTIONS TO VISIBILITY.

WIZ001-002-006>008-014>016-023>028-250400-
NORTHWEST WISCONSIN

CITY           SKY/WX    TMP DP  RH WIND       PRES   REMARKS
SUPERIOR ARPT  NOT AVBL
ASHLAND        CLEAR     40  39  97 N6        29.78R
HAYWARD        PTCLDY    50  43  77 NE5       29.75R
SIREN          CLOUDY    56  45  67 CALM      29.73S
CUMBERLAND     CLOUDY    54  45  71 E3        29.73R
RICE LAKE      CLOUDY    55  47  73 CALM      29.74S
CHETEK         CLOUDY    54  48  82 CALM      29.73R
LADYSMITH      CLOUDY    51  47  86 NE3       29.75R
EAU CLAIRE     PTCLDY    51  47  86 CALM      29.71S
MENOMONIE      CLOUDY    53  49  87 NE3       29.73R
NEW RICHMOND   CLOUDY    53  46  77 NE3       29.72S
OSCEOLA        CLOUDY    53  48  83 CALM      29.75R
$$

WIZ003>005-009-010-017-018-250400-
NORTH CENTRAL WISCONSIN

CITY           SKY/WX    TMP DP  RH WIND       PRES   REMARKS
MANITOWISH WTR CLOUDY    51  49  91 CALM      29.74S
ARBOR VITAE    CLOUDY    53  48  82 CALM      29.74R
WOODRUFF       CLOUDY    53  48  82 CALM      29.74R
RHINELANDER    CLOUDY    53  49  86 CALM      29.74S
EAGLE RIVER    CLOUDY    51  45  78 E3        29.74S
LAND O LAKES   CLOUDY    52  46  81 CALM      29.76S
PHILLIPS       CLOUDY    51  48  89 N3        29.74R
TOMAHAWK       CLOUDY    52  47  83 CALM      29.74R
MEDFORD        CLOUDY    51  47  86 NE3       29.72S
MERRILL        CLOUDY    53  49  87 NE3       29.73S
$$

WIZ029-030-035-036-043>047-250400-
CENTRAL WISCONSIN

CITY           SKY/WX    TMP DP  RH WIND       PRES   REMARKS
WAUSAU         CLOUDY    54  49  83 CALM      29.71R
MOSINEE        CLOUDY    52  52 100 NE3       29.72S
MARSHFIELD     PTCLDY    51  47  86 NE3       29.71R
STEVENS POINT  CLOUDY    50  49  96 NE5       29.71S
WAUPACA        CLOUDY    55  51  85 N6        29.70S
WAUTOMA        CLOUDY    53  50  89 N7        29.70S
WISC RAPIDS    CLOUDY    54  49  83 NE6       29.72R
CAMP DOUGLAS   CLOUDY    54  50  87 CALM      29.70S
$$

WIZ011>013-019>022-031-037>040-048>050-250400-
NORTHEAST WISCONSIN

CITY           SKY/WX    TMP DP  RH WIND       PRES   REMARKS
ANTIGO         CLOUDY    50  49  99 NE5       29.73S
SHAWANO        CLOUDY    55  51  87 N7        29.70F
OCONTO         CLOUDY    51  49  92 N7        29.70R
STURGEON BAY   PTCLDY    52  49  89 N8        29.69S
GREEN BAY      CLOUDY    53  51  93 N14       29.68S
MANITOWOC      PTCLDY    51  48  89 N10       29.65F
APPLETON       CLOUDY    52  50  93 N13       29.67S
CLINTONVILLE   CLOUDY    52  50  93 N3        29.70S
OSHKOSH        MOCLDY    53  49  86 N10       29.66F
$$

WIZ032>034-041-042-053>061-250400-
SOUTHWEST WISCONSIN

CITY           SKY/WX    TMP DP  RH WIND       PRES   REMARKS
LA CROSSE      CLOUDY    57  51  80 NE3       29.70R
SPARTA         CLOUDY    53  51  91 NE3       29.71S
VIROQUA        MOCLDY    52  50  95 MISG      29.70R
BOSCOBEL       CLOUDY    53  51  93 CALM      29.69R
PRAIRIE DU CHI MOCLDY    54  49  81 CALM      29.69R
PLATTEVILLE    PTCLDY    53  53  99 N7        29.67S
$$

WIZ056-057-062-063-064-067-068-250400-
SOUTH CENTRAL WISCONSIN

CITY           SKY/WX    TMP DP  RH WIND       PRES   REMARKS
REEDSBURG      CLOUDY    53  52  95 N6        29.69R
BARABOO/DELLS  CLOUDY    53  48  84 N3        29.69R
LONE ROCK      CLOUDY    56  50  80 NE7       29.68R
MINERAL POINT  CLOUDY    54  54 100 N7        29.67S
MADISON        CLOUDY    53  50  89 N12       29.65S
MIDDLETON      CLOUDY    54  52  94 N7        29.67R
WATERTOWN      CLOUDY    53  52  97 N8G16     29.64R
MONROE         CLOUDY    52  50  93 N10       29.65S
JANESVILLE     MOCLDY    54  52  94 N8G17     29.63S
$$

WIZ051-052-058>065-066-070>072-250400-
SOUTHEAST WISCONSIN

CITY           SKY/WX    TMP DP  RH WIND       PRES   REMARKS
MILWAUKEE      MOCLDY    56  50  80 N16G25    29.60S
WAUKESHA       NOT AVBL
MILWAUKEE/TIMM   N/A     54  46  76 N9        29.61F
RACINE         CLOUDY    52  48  86 N17G26    29.62S
KENOSHA        MOCLDY    54  49  83 N12G18    29.60R
FOND DU LAC    MOCLDY    54  49  83 N12       29.66S
SHEBOYGAN      CLOUDY    53  51  93 N10       29.63S
WEST BEND      CLOUDY    52  50  93 N6        29.63S
JUNEAU         CLOUDY    52  50  92 N10       29.66S
$$

LSZ147-162-250400-
LAKE SUPERIOR

STATION/POSITION TIME  TEMP    WIND        PRES    WAVE
                       AIR SEA DIR/SP/G            HT/PER
                 (UTC) (F)     (DEG/KT/KT) (MB)    (FT/S)
$$

LMZ867-665-643>646-250400-
LAKE MICHIGAN

STATION/POSITION TIME  TEMP    WIND        PRES    WAVE
                       AIR SEA DIR/SP/G            HT/PER
                 (UTC) (F)     (DEG/KT/KT) (MB)    (FT/S)
$$

TC  - TEMPERATURE IN CELSIUS
VSB - VISIBILITY IN STATUTE MILES
WCI - WIND CHILL INDEX
HX  - HEAT INDEX





USA.gov is the U.S. government's official web portal to all federal, state and local government web resources and services.